TimeEDT,TemperatureF,Dew PointF,Humidity,Sea Level PressureIn,VisibilityMPH,Wind Direction,Wind SpeedMPH,Gust SpeedMPH,PrecipitationIn,Events,Conditions,WindDirDegrees,DateUTC
12:15 AM,72.5,70.2,92,29.93,7.0,WSW,10.4,-,N/A,,Mostly Cloudy,250,2013-08-08 04:15:00
12:35 AM,73.0,70.5,92,29.93,7.0,West,4.6,-,N/A,,Mostly Cloudy,260,2013-08-08 04:35:00
12:55 AM,72.1,69.8,92,29.94,4.0,SW,4.6,-,N/A,,Scattered Clouds,220,2013-08-08 04:55:00
1:15 AM,70.9,69.1,94,29.94,4.0,Calm,Calm,-,N/A,,Clear,0,2013-08-08 05:15:00
1:35 AM,70.2,68.5,95,29.95,3.0,NW,5.8,-,N/A,,Scattered Clouds,310,2013-08-08 05:35:00
1:55 AM,69.6,68.2,95,29.94,3.0,Calm,Calm,-,N/A,,Scattered Clouds,0,2013-08-08 05:55:00
2:15 AM,68.4,66.9,95,29.95,4.0,WSW,3.5,-,N/A,,Mostly Cloudy,250,2013-08-08 06:15:00
2:35 AM,68.5,67.1,95,29.94,7.0,NW,3.5,-,N/A,,Overcast,310,2013-08-08 06:35:00
2:55 AM,68.0,66.6,95,29.95,7.0,West,3.5,-,N/A,,Scattered Clouds,270,2013-08-08 06:55:00
3:15 AM,67.5,66.0,95,29.94,5.0,NW,3.5,-,N/A,,Clear,310,2013-08-08 07:15:00
3:35 AM,66.9,65.5,95,29.94,4.0,NW,3.5,-,N/A,,Clear,320,2013-08-08 07:35:00
3:55 AM,66.2,64.9,96,29.94,2.5,Calm,Calm,-,N/A,,Scattered Clouds,0,2013-08-08 07:55:00
4:15 AM,65.8,64.4,95,29.94,4.0,Calm,Calm,-,N/A,,Mostly Cloudy,0,2013-08-08 08:15:00
4:35 AM,66.4,65.1,96,29.94,3.0,Calm,Calm,-,N/A,,Scattered Clouds,0,2013-08-08 08:35:00
4:55 AM,66.0,64.9,96,29.94,4.0,Calm,Calm,-,N/A,,Clear,0,2013-08-08 08:55:00
5:15 AM,65.5,64.4,96,29.95,3.0,Calm,Calm,-,N/A,,Clear,0,2013-08-08 09:15:00
5:35 AM,64.6,63.7,97,29.95,1.0,West,3.5,-,N/A,,Mostly Cloudy,270,2013-08-08 09:35:00
5:55 AM,64.2,63.1,96,29.95,0.5,Calm,Calm,-,N/A,Fog,Fog,0,2013-08-08 09:55:00
6:15 AM,64.2,63.1,96,29.94,0.2,Calm,Calm,-,N/A,Fog,Fog,0,2013-08-08 10:15:00
6:35 AM,64.4,63.1,96,29.93,0.2,Calm,Calm,-,N/A,Fog,Fog,0,2013-08-08 10:35:00
6:55 AM,63.9,62.8,96,29.94,0.2,West,3.5,-,N/A,Fog,Fog,270,2013-08-08 10:55:00
7:15 AM,64.0,63.0,96,29.94,0.2,Calm,Calm,-,N/A,Fog,Fog,0,2013-08-08 11:15:00
7:35 AM,64.9,63.9,96,29.94,0.5,Calm,Calm,-,N/A,Fog,Fog,0,2013-08-08 11:35:00
7:55 AM,66.2,65.1,96,29.95,0.5,Calm,Calm,-,N/A,Fog,Fog,0,2013-08-08 11:55:00
8:15 AM,67.1,66.2,97,29.95,2.5,Calm,Calm,-,N/A,,Clear,0,2013-08-08 12:15:00
8:35 AM,68.5,67.6,97,29.96,4.0,NE,5.8,-,N/A,,Scattered Clouds,40,2013-08-08 12:35:00
8:55 AM,69.3,68.2,96,29.96,5.0,ENE,6.9,-,N/A,,Mostly Cloudy,60,2013-08-08 12:55:00
9:15 AM,70.0,68.7,96,29.96,7.0,ENE,8.1,-,N/A,,Overcast,60,2013-08-08 13:15:00
9:35 AM,70.3,68.9,95,29.97,7.0,ENE,5.8,-,N/A,,Overcast,70,2013-08-08 13:35:00
9:55 AM,70.5,68.9,95,29.98,7.0,East,5.8,-,N/A,,Overcast,90,2013-08-08 13:55:00
10:15 AM,70.9,69.1,94,29.99,7.0,Calm,Calm,-,N/A,,Overcast,0,2013-08-08 14:15:00
10:35 AM,70.9,69.1,94,29.99,7.0,East,4.6,-,N/A,,Overcast,80,2013-08-08 14:35:00
10:55 AM,71.8,69.4,92,29.99,7.0,East,6.9,-,N/A,,Overcast,90,2013-08-08 14:55:00
11:15 AM,73.2,69.1,87,29.98,7.0,East,6.9,-,N/A,,Overcast,90,2013-08-08 15:15:00
11:35 AM,73.6,68.9,85,29.98,7.0,East,6.9,-,N/A,,Overcast,90,2013-08-08 15:35:00
11:55 AM,73.8,69.1,85,29.99,5.0,East,5.8,-,N/A,,Haze,90,2013-08-08 15:55:00
12:15 PM,74.7,69.3,83,29.99,7.0,ENE,3.5,-,N/A,,Overcast,60,2013-08-08 16:15:00
12:35 PM,74.1,69.1,84,29.99,10.0,ENE,3.5,-,N/A,,Overcast,70,2013-08-08 16:35:00
12:55 PM,73.4,69.3,87,29.99,3.0,ENE,3.5,-,N/A,Rain,Light Rain,60,2013-08-08 16:55:00
1:15 PM,72.9,70.0,91,29.98,2.5,NNE,3.5,-,N/A,Rain,Light Rain,20,2013-08-08 17:15:00
1:35 PM,72.5,70.2,92,29.97,0.5,North,3.5,-,N/A,Rain,Heavy Rain,10,2013-08-08 17:35:00
1:55 PM,71.8,70.0,94,29.97,0.8,NNE,3.5,-,N/A,Rain,Light Rain,30,2013-08-08 17:55:00
2:15 PM,71.2,69.8,95,29.98,1.2,NNE,3.5,-,0.01,Rain,Rain,30,2013-08-08 18:15:00
2:35 PM,71.4,70.0,95,29.97,3.0,NNE,6.9,-,0.01,,Overcast,20,2013-08-08 18:35:00
2:55 PM,71.4,69.8,95,29.97,2.5,NNE,5.8,-,0.01,Rain,Rain,20,2013-08-08 18:55:00
3:15 PM,71.2,69.8,95,29.96,4.0,ENE,6.9,-,N/A,Rain,Light Rain,60,2013-08-08 19:15:00
3:35 PM,71.8,70.0,94,29.96,7.0,ENE,5.8,-,N/A,,Overcast,60,2013-08-08 19:35:00
3:55 PM,71.6,69.4,93,29.97,7.0,Calm,Calm,-,N/A,,Overcast,0,2013-08-08 19:55:00
4:15 PM,72.1,69.4,91,29.96,7.0,ENE,8.1,-,N/A,,Overcast,70,2013-08-08 20:15:00
4:35 PM,72.1,69.3,91,29.96,7.0,NNE,5.8,-,N/A,,Overcast,30,2013-08-08 20:35:00
4:55 PM,71.8,69.4,92,29.95,5.0,ENE,5.8,-,N/A,,Overcast,60,2013-08-08 20:55:00
5:15 PM,72.1,69.8,92,29.96,5.0,ENE,5.8,-,N/A,,Overcast,70,2013-08-08 21:15:00
5:35 PM,72.0,69.4,92,29.95,7.0,NE,8.1,-,N/A,,Overcast,50,2013-08-08 21:35:00
5:55 PM,71.8,69.1,91,29.95,5.0,East,4.6,-,0.01,,Overcast,80,2013-08-08 21:55:00
6:15 PM,72.0,69.1,91,29.95,5.0,ENE,4.6,-,N/A,,Overcast,60,2013-08-08 22:15:00
6:35 PM,71.8,68.9,91,29.96,5.0,NE,5.8,-,N/A,,Overcast,50,2013-08-08 22:35:00
6:55 PM,71.6,68.5,90,29.96,5.0,NE,4.6,-,N/A,,Overcast,50,2013-08-08 22:55:00
7:15 PM,71.2,68.5,91,29.95,4.0,NE,4.6,-,N/A,,Overcast,50,2013-08-08 23:15:00
7:35 PM,70.9,68.4,92,29.95,3.0,NE,5.8,-,0.01,,Overcast,50,2013-08-08 23:35:00
7:55 PM,70.9,68.4,92,29.95,3.0,Calm,Calm,-,0.01,,Overcast,0,2013-08-08 23:55:00
8:15 PM,70.7,68.2,92,29.96,3.0,Calm,Calm,-,N/A,,Overcast,0,2013-08-09 00:15:00
8:35 PM,70.7,68.0,91,29.96,3.0,NNE,3.5,-,N/A,,Overcast,30,2013-08-09 00:35:00
8:55 PM,70.5,68.0,92,29.97,4.0,NNE,3.5,-,N/A,,Overcast,30,2013-08-09 00:55:00
9:15 PM,70.3,67.8,92,29.97,5.0,NE,3.5,-,N/A,,Overcast,50,2013-08-09 01:15:00
9:35 PM,70.2,67.8,92,29.98,4.0,Calm,Calm,-,N/A,,Overcast,0,2013-08-09 01:35:00
9:55 PM,70.0,68.0,93,29.98,4.0,NNE,3.5,-,N/A,,Overcast,30,2013-08-09 01:55:00
10:15 PM,70.0,67.8,93,29.97,5.0,NE,5.8,-,N/A,,Overcast,50,2013-08-09 02:15:00
10:35 PM,69.8,67.6,93,29.98,5.0,NE,4.6,-,N/A,,Overcast,40,2013-08-09 02:35:00
10:55 PM,69.8,67.6,93,29.98,4.0,ENE,3.5,-,0.01,,Overcast,60,2013-08-09 02:55:00
11:15 PM,69.8,67.6,93,29.98,5.0,ENE,4.6,-,N/A,,Overcast,60,2013-08-09 03:15:00
11:35 PM,69.6,67.5,93,29.97,4.0,NE,4.6,-,N/A,,Overcast,50,2013-08-09 03:35:00
11:55 PM,69.8,67.3,92,29.96,4.0,ENE,6.9,-,N/A,,Overcast,70,2013-08-09 03:55:00